QPF
0.01 0.01 0.01 0.00 0.00 0.00 0.00 0.01 0.00 0.00 0.01 0.01 0.02 0.03 0.02 0.03 0.04 0.03 0.02 0.01 0.01 0.01 0.01 0.01 0.00 0.00 0.00 0.00 0.01 0.01 0.01 0.01 0.01 0.01 0.01 0.01 0.02 0.03 0.02 0.01 0.01 0.01 0.01 0.01
0.01 0.01 0.01 0.00 0.00 0.00 0.00 0.00 0.00 0.01 0.02 0.03 0.03 0.03 0.02 0.03 0.02 0.02 0.02 0.02 0.01 0.01 0.02 0.02 0.02 0.01 0.01 0.01 0.01 0.01 0.01 0.01 0.01 0.02 0.02 0.01 0.01 0.04 0.03 0.01 0.01 0.01 0.01 0.01
0.00 0.01 0.02 0.01 0.00 0.00 0.00 0.00 0.00 0.00 0.01 0.03 0.03 0.02 0.02 0.03 0.02 0.03 0.03 0.03 0.02 0.02 0.03 0.03 0.03 0.02 0.02 0.02 0.01 0.01 0.01 0.02 0.02 0.03 0.03 0.03 0.02 0.04 0.02 0.01 0.01 0.01 0.01 0.00
0.01 0.01 0.01 0.00 0.00 0.00 0.00 0.00 0.00 0.00 0.01 0.02 0.03 0.03 0.02 0.03 0.05 0.05 0.03 0.02 0.02 0.02 0.02 0.02 0.02 0.02 0.02 0.02 0.02 0.02 0.03 0.03 0.03 0.06 0.06 0.04 0.03 0.03 0.02 0.02 0.01 0.01 0.01 0.00
0.00 0.01 0.00 0.00 0.00 0.00 0.00 0.01 0.00 0.00 0.00 0.01 0.02 0.03 0.03 0.03 0.03 0.02 0.02 0.02 0.01 0.01 0.02 0.02 0.02 0.02 0.03 0.03 0.03 0.03 0.04 0.04 0.04 0.06 0.07 0.07 0.06 0.06 0.04 0.03 0.02 0.01 0.01 0.01
0.01 0.01 0.00 0.00 0.00 0.00 0.00 0.01 0.01 0.00 0.00 0.01 0.01 0.03 0.04 0.03 0.02 0.02 0.02 0.01 0.01 0.02 0.02 0.02 0.02 0.02 0.03 0.04 0.05 0.04 0.03 0.03 0.04 0.05 0.06 0.08 0.08 0.07 0.05 0.04 0.03 0.02 0.01 0.02
0.02 0.02 0.01 0.00 0.00 0.00 0.01 0.01 0.01 0.01 0.01 0.01 0.01 0.02 0.03 0.04 0.03 0.03 0.03 0.02 0.02 0.02 0.02 0.03 0.03 0.03 0.03 0.05 0.07 0.06 0.04 0.04 0.05 0.05 0.05 0.05 0.04 0.04 0.04 0.04 0.03 0.03 0.03 0.03
0.03 0.03 0.02 0.01 0.01 0.01 0.01 0.01 0.01 0.01 0.01 0.01 0.01 0.02 0.07 0.10 0.06 0.04 0.05 0.05 0.04 0.03 0.03 0.03 0.04 0.05 0.04 0.06 0.06 0.05 0.05 0.05 0.05 0.05 0.05 0.06 0.06 0.06 0.07 0.06 0.06 0.05 0.04 0.05
0.03 0.03 0.03 0.02 0.02 0.02 0.02 0.02 0.01 0.01 0.01 0.01 0.01 0.02 0.03 0.05 0.04 0.02 0.02 0.02 0.02 0.02 0.02 0.02 0.02 0.03 0.04 0.05 0.05 0.05 0.05 0.04 0.04 0.04 0.04 0.05 0.06 0.07 0.07 0.07 0.05 0.03 0.03 0.03
0.02 0.02 0.03 0.03 0.03 0.03 0.02 0.01 0.01 0.01 0.01 0.01 0.01 0.01 0.03 0.02 0.02 0.03 0.02 0.02 0.02 0.02 0.01 0.01 0.02 0.02 0.03 0.04 0.04 0.04 0.04 0.05 0.04 0.04 0.05 0.05 0.05 0.05 0.04 0.03 0.03 0.02 0.02 0.02
0.02 0.02 0.02 0.02 0.01 0.01 0.02 0.02 0.01 0.01 0.01 0.01 0.01 0.02 0.04 0.04 0.03 0.04 0.04 0.04 0.07 0.06 0.03 0.03 0.03 0.03 0.04 0.04 0.03 0.03 0.04 0.04 0.04 0.05 0.05 0.07 0.07 0.06 0.05 0.03 0.02 0.02 0.03 0.03
0.03 0.02 0.02 0.02 0.02 0.02 0.02 0.02 0.02 0.02 0.02 0.01 0.01 0.02 0.04 0.04 0.03 0.04 0.04 0.06 0.08 0.09 0.09 0.08 0.07 0.05 0.04 0.04 0.03 0.04 0.03 0.03 0.03 0.04 0.05 0.07 0.08 0.11 0.11 0.08 0.06 0.05 0.05 0.06
0.04 0.04 0.03 0.03 0.04 0.03 0.03 0.03 0.03 0.03 0.03 0.03 0.03 0.03 0.03 0.03 0.02 0.02 0.02 0.03 0.04 0.07 0.09 0.10 0.09 0.06 0.05 0.05 0.04 0.04 0.03 0.03 0.03 0.03 0.04 0.05 0.05 0.07 0.09 0.11 0.11 0.10 0.08 0.08
0.05 0.05 0.05 0.04 0.04 0.04 0.04 0.04 0.04 0.04 0.05 0.05 0.05 0.05 0.04 0.03 0.03 0.03 0.02 0.02 0.03 0.04 0.05 0.06 0.07 0.06 0.05 0.04 0.03 0.03 0.02 0.03 0.03 0.03 0.03 0.05 0.05 0.05 0.06 0.07 0.08 0.08 0.07 0.06
0.05 0.04 0.04 0.04 0.03 0.03 0.03 0.04 0.05 0.07 0.07 0.05 0.05 0.05 0.04 0.04 0.03 0.03 0.03 0.03 0.04 0.05 0.04 0.04 0.04 0.04 0.05 0.04 0.04 0.04 0.04 0.04 0.04 0.04 0.05 0.05 0.05 0.06 0.07 0.07 0.07 0.06 0.05 0.05
0.04 0.05 0.04 0.04 0.05 0.04 0.04 0.04 0.06 0.08 0.09 0.09 0.06 0.04 0.04 0.04 0.04 0.04 0.04 0.04 0.05 0.05 0.06 0.05 0.05 0.05 0.05 0.05 0.05 0.05 0.05 0.06 0.06 0.06 0.07 0.07 0.06 0.05 0.04 0.05 0.06 0.06 0.05 0.06
0.04 0.07 0.07 0.05 0.05 0.05 0.05 0.05 0.06 0.07 0.10 0.12 0.09 0.06 0.06 0.06 0.06 0.05 0.05 0.05 0.06 0.06 0.08 0.07 0.06 0.06 0.05 0.04 0.04 0.04 0.05 0.07 0.07 0.06 0.05 0.05 0.05 0.04 0.05 0.06 0.07 0.08 0.08 0.07
0.03 0.04 0.06 0.08 0.11 0.10 0.08 0.06 0.06 0.06 0.07 0.09 0.08 0.08 0.07 0.06 0.06 0.06 0.05 0.05 0.05 0.05 0.07 0.09 0.07 0.08 0.07 0.05 0.04 0.04 0.04 0.04 0.05 0.05 0.04 0.04 0.04 0.05 0.05 0.07 0.07 0.07 0.08 0.08
0.03 0.03 0.04 0.07 0.14 0.17 0.13 0.10 0.09 0.08 0.08 0.10 0.09 0.07 0.06 0.06 0.06 0.05 0.05 0.05 0.04 0.05 0.06 0.06 0.08 0.11 0.11 0.08 0.06 0.04 0.04 0.04 0.05 0.05 0.05 0.06 0.05 0.04 0.06 0.08 0.08 0.06 0.06 0.06
0.04 0.04 0.04 0.06 0.10 0.14 0.14 0.11 0.08 0.07 0.06 0.06 0.05 0.05 0.06 0.07 0.07 0.06 0.05 0.04 0.04 0.05 0.06 0.05 0.05 0.09 0.13 0.13 0.10 0.06 0.05 0.05 0.05 0.05 0.06 0.07 0.06 0.04 0.04 0.06 0.06 0.06 0.06 0.05
0.04 0.03 0.03 0.05 0.06 0.06 0.08 0.10 0.10 0.07 0.06 0.05 0.05 0.05 0.05 0.06 0.05 0.05 0.05 0.03 0.03 0.04 0.04 0.05 0.04 0.04 0.07 0.09 0.10 0.10 0.08 0.07 0.07 0.07 0.05 0.04 0.05 0.04 0.03 0.04 0.05 0.06 0.05 0.04
0.04 0.04 0.04 0.03 0.03 0.03 0.04 0.05 0.06 0.06 0.04 0.04 0.04 0.03 0.05 0.05 0.04 0.03 0.03 0.03 0.02 0.02 0.03 0.02 0.03 0.03 0.04 0.05 0.05 0.06 0.07 0.07 0.06 0.06 0.04 0.02 0.02 0.02 0.02 0.02 0.03 0.04 0.05 0.06
0.05 0.05 0.04 0.03 0.03 0.03 0.03 0.03 0.03 0.05 0.06 0.03 0.03 0.02 0.03 0.04 0.03 0.02 0.02 0.02 0.02 0.02 0.03 0.03 0.03 0.03 0.04 0.04 0.04 0.05 0.04 0.04 0.04 0.04 0.04 0.04 0.03 0.03 0.03 0.03 0.03 0.03 0.03 0.04
0.05 0.04 0.04 0.03 0.03 0.04 0.04 0.04 0.04 0.04 0.07 0.06 0.03 0.03 0.03 0.02 0.03 0.02 0.02 0.01 0.02 0.02 0.02 0.03 0.04 0.05 0.04 0.03 0.03 0.03 0.03 0.03 0.03 0.04 0.04 0.04 0.03 0.03 0.02 0.03 0.04 0.04 0.03 0.02
0.05 0.04 0.04 0.03 0.03 0.03 0.03 0.04 0.04 0.04 0.03 0.04 0.03 0.02 0.02 0.02 0.02 0.02 0.02 0.02 0.02 0.02 0.02 0.03 0.04 0.05 0.03 0.02 0.02 0.02 0.03 0.03 0.04 0.04 0.04 0.03 0.03 0.03 0.02 0.02 0.02 0.02 0.03 0.04
0.04 0.04 0.03 0.03 0.03 0.02 0.03 0.03 0.04 0.04 0.03 0.02 0.02 0.02 0.02 0.02 0.02 0.03 0.03 0.03 0.03 0.03 0.02 0.02 0.03 0.03 0.02 0.03 0.03 0.04 0.03 0.03 0.04 0.04 0.03 0.02 0.02 0.01 0.01 0.01 0.02 0.02 0.02 0.03
0.02 0.02 0.03 0.02 0.02 0.02 0.03 0.03 0.03 0.03 0.03 0.03 0.03 0.02 0.02 0.02 0.03 0.04 0.04 0.04 0.04 0.04 0.03 0.03 0.03 0.02 0.02 0.03 0.03 0.04 0.03 0.03 0.04 0.04 0.03 0.03 0.02 0.02 0.01 0.02 0.02 0.03 0.04 0.04
MSLP
1003.51 1004.00 1004.49 1004.98 1005.46 1005.92 1006.32 1006.64 1006.85 1006.97 1006.97 1006.90 1006.78 1006.65 1006.56 1006.53 1006.57 1006.69 1006.88 1007.12 1007.38 1007.65 1007.91 1008.16 1008.41 1008.65 1008.92 1009.21 1009.54 1009.88 1010.24 1010.59 1010.91 1011.20 1011.44 1011.64 1011.81 1011.98 1012.15 1012.36 1012.60 1012.88 1013.20 1013.54
1004.19 1004.57 1004.87 1005.13 1005.35 1005.56 1005.76 1005.95 1006.14 1006.32 1006.49 1006.65 1006.80 1006.94 1007.09 1007.23 1007.38 1007.53 1007.67 1007.81 1007.95 1008.09 1008.23 1008.38 1008.55 1008.75 1008.99 1009.25 1009.53 1009.82 1010.10 1010.36 1010.58 1010.77 1010.92 1011.05 1011.18 1011.31 1011.48 1011.68 1011.92 1012.21 1012.52 1012.84
1005.14 1005.39 1005.51 1005.55 1005.54 1005.53 1005.55 1005.63 1005.78 1006.02 1006.32 1006.66 1007.03 1007.39 1007.72 1008.01 1008.23 1008.39 1008.49 1008.54 1008.58 1008.60 1008.65 1008.72 1008.83 1008.99 1009.19 1009.41 1009.64 1009.86 1010.05 1010.20 1010.32 1010.40 1010.46 1010.51 1010.57 1010.66 1010.80 1010.98 1011.20 1011.45 1011.73 1012.01
1006.19 1006.30 1006.27 1006.12 1005.92 1005.73 1005.61 1005.60 1005.73 1006.00 1006.39 1006.87 1007.39 1007.89 1008.35 1008.72 1008.98 1009.14 1009.21 1009.20 1009.16 1009.11 1009.09 1009.11 1009.19 1009.31 1009.48 1009.66 1009.84 1009.98 1010.09 1010.14 1010.15 1010.13 1010.09 1010.05 1010.05 1010.09 1010.17 1010.30 1010.47 1010.66 1010.87 1011.07
1007.11 1007.11 1006.94 1006.65 1006.32 1006.01 1005.80 1005.74 1005.86 1006.15 1006.60 1007.15 1007.76 1008.35 1008.87 1009.28 1009.56 1009.71 1009.74 1009.69 1009.61 1009.53 1009.48 1009.48 1009.55 1009.66 1009.81 1009.97 1010.09 1010.18 1010.20 1010.17 1010.08 1009.96 1009.83 1009.72 1009.65 1009.62 1009.64 1009.70 1009.79 1009.89 1010.00 1010.09
1007.73 1007.63 1007.36 1006.99 1006.58 1006.22 1005.98 1005.91 1006.03 1006.35 1006.83 1007.42 1008.06 1008.68 1009.22 1009.64 1009.91 1010.05 1010.06 1010.00 1009.91 1009.82 1009.78 1009.79 1009.87 1009.99 1010.14 1010.27 1010.36 1010.40 1010.36 1010.25 1010.09 1009.90 1009.70 1009.53 1009.39 1009.29 1009.24 1009.22 1009.21 1009.21 1009.20 1009.17
1007.95 1007.76 1007.44 1007.03 1006.62 1006.27 1006.05 1006.01 1006.17 1006.51 1007.01 1007.61 1008.26 1008.87 1009.39 1009.79 1010.05 1010.17 1010.19 1010.13 1010.05 1009.99 1009.98 1010.02 1010.12 1010.26 1010.41 1010.53 1010.60 1010.59 1010.51 1010.35 1010.14 1009.90 1009.66 1009.43 1009.24 1009.09 1008.97 1008.87 1008.77 1008.66 1008.53 1008.37
1007.75 1007.51 1007.17 1006.79 1006.42 1006.14 1005.99 1006.01 1006.22 1006.60 1007.11 1007.71 1008.34 1008.92 1009.42 1009.79 1010.03 1010.14 1010.16 1010.13 1010.08 1010.05 1010.07 1010.15 1010.28 1010.43 1010.58 1010.69 1010.74 1010.71 1010.60 1010.41 1010.17 1009.90 1009.64 1009.38 1009.16 1008.97 1008.79 1008.62 1008.44 1008.23 1008.00 1007.73
1007.23 1006.97 1006.66 1006.34 1006.06 1005.88 1005.83 1005.94 1006.21 1006.62 1007.15 1007.74 1008.33 1008.88 1009.33 1009.67 1009.89 1010.01 1010.04 1010.03 1010.02 1010.03 1010.09 1010.19 1010.33 1010.48 1010.61 1010.71 1010.73 1010.68 1010.54 1010.34 1010.10 1009.82 1009.55 1009.29 1009.06 1008.84 1008.63 1008.41 1008.17 1007.90 1007.59 1007.25
1006.56 1006.31 1006.05 1005.81 1005.65 1005.58 1005.64 1005.84 1006.18 1006.63 1007.16 1007.73 1008.28 1008.78 1009.19 1009.50 1009.70 1009.82 1009.87 1009.89 1009.90 1009.94 1010.02 1010.12 1010.25 1010.38 1010.49 1010.54 1010.53 1010.45 1010.30 1010.10 1009.85 1009.59 1009.33 1009.09 1008.86 1008.64 1008.41 1008.17 1007.90 1007.58 1007.23 1006.85
1005.89 1005.67 1005.48 1005.34 1005.29 1005.34 1005.50 1005.78 1006.17 1006.63 1007.15 1007.69 1008.19 1008.65 1009.02 1009.30 1009.49 1009.61 1009.67 1009.71 1009.75 1009.79 1009.86 1009.95 1010.05 1010.13 1010.18 1010.19 1010.13 1010.02 1009.85 1009.65 1009.41 1009.17 1008.93 1008.71 1008.50 1008.29 1008.07 1007.82 1007.53 1007.21 1006.84 1006.45
1005.35 1005.18 1005.06 1005.02 1005.07 1005.21 1005.45 1005.78 1006.19 1006.65 1007.13 1007.62 1008.08 1008.48 1008.81 1009.06 1009.24 1009.37 1009.44 1009.49 1009.54 1009.58 1009.63 1009.67 1009.71 1009.73 1009.72 1009.66 1009.55 1009.40 1009.21 1009.00 1008.78 1008.56 1008.35 1008.15 1007.96 1007.76 1007.55 1007.31 1007.02 1006.70 1006.34 1005.96
1004.99 1004.87 1004.82 1004.86 1004.98 1005.19 1005.47 1005.82 1006.22 1006.64 1007.08 1007.51 1007.90 1008.25 1008.54 1008.77 1008.95 1009.08 1009.17 1009.23 1009.27 1009.30 1009.31 1009.31 1009.28 1009.23 1009.14 1009.01 1008.85 1008.66 1008.45 1008.23 1008.02 1007.82 1007.63 1007.45 1007.27 1007.08 1006.87 1006.63 1006.35 1006.04 1005.69 1005.33
1004.77 1004.70 1004.71 1004.80 1004.97 1005.21 1005.51 1005.84 1006.21 1006.58 1006.96 1007.32 1007.65 1007.94 1008.20 1008.42 1008.60 1008.73 1008.83 1008.90 1008.94 1008.95 1008.93 1008.87 1008.78 1008.66 1008.50 1008.31 1008.10 1007.88 1007.65 1007.43 1007.22 1007.03 1006.85 1006.68 1006.50 1006.30 1006.08 1005.83 1005.54 1005.22 1004.88 1004.53
1004.61 1004.57 1004.63 1004.76 1004.96 1005.21 1005.49 1005.79 1006.11 1006.42 1006.73 1007.02 1007.29 1007.55 1007.78 1007.99 1008.17 1008.32 1008.44 1008.52 1008.56 1008.56 1008.51 1008.41 1008.27 1008.09 1007.87 1007.63 1007.38 1007.14 1006.90 1006.67 1006.47 1006.28 1006.10 1005.91 1005.71 1005.49 1005.24 1004.95 1004.63 1004.29 1003.93 1003.57
1004.39 1004.40 1004.49 1004.65 1004.85 1005.10 1005.36 1005.62 1005.88 1006.13 1006.38 1006.61 1006.84 1007.07 1007.29 1007.50 1007.69 1007.86 1008.00 1008.10 1008.15 1008.14 1008.08 1007.95 1007.78 1007.56 1007.31 1007.04 1006.76 1006.50 1006.25 1006.02 1005.81 1005.61 1005.41 1005.20 1004.97 1004.70 1004.39 1004.05 1003.67 1003.28 1002.89 1002.51
1004.06 1004.09 1004.21 1004.39 1004.61 1004.85 1005.08 1005.31 1005.53 1005.73 1005.93 1006.12 1006.32 1006.53 1006.74 1006.96 1007.18 1007.38 1007.55 1007.67 1007.73 1007.73 1007.66 1007.53 1007.33 1007.10 1006.83 1006.54 1006.26 1005.98 1005.73 1005.49 1005.27 1005.05 1004.82 1004.56 1004.27 1003.93 1003.56 1003.14 1002.70 1002.25 1001.81 1001.39
1003.59 1003.65 1003.80 1004.00 1004.23 1004.46 1004.68 1004.89 1005.07 1005.24 1005.41 1005.58 1005.76 1005.96 1006.19 1006.42 1006.66 1006.89 1007.08 1007.23 1007.31 1007.33 1007.27 1007.13 1006.94 1006.70 1006.42 1006.14 1005.85 1005.57 1005.31 1005.05 1004.81 1004.55 1004.27 1003.96 1003.60 1003.19 1002.73 1002.24 1001.72 1001.20 1000.70 1000.24
1003.02 1003.12 1003.29 1003.52 1003.75 1003.99 1004.20 1004.39 1004.56 1004.72 1004.86 1005.02 1005.20 1005.41 1005.64 1005.89 1006.14 1006.39 1006.61 1006.78 1006.89 1006.92 1006.87 1006.75 1006.57 1006.34 1006.07 1005.78 1005.49 1005.20 1004.93 1004.65 1004.37 1004.06 1003.73 1003.35 1002.91 1002.42 1001.89 1001.32 1000.73 1000.14 999.58 999.08
1002.45 1002.58 1002.78 1003.02 1003.27 1003.51 1003.72 1003.90 1004.05 1004.20 1004.33 1004.48 1004.66 1004.86 1005.10 1005.35 1005.62 1005.89 1006.12 1006.31 1006.43 1006.48 1006.46 1006.35 1006.19 1005.97 1005.71 1005.42 1005.13 1004.83 1004.53 1004.21 1003.89 1003.53 1003.13 1002.67 1002.16 1001.60 1000.99 1000.35 999.70 999.06 998.46 997.91
1001.99 1002.15 1002.36 1002.61 1002.86 1003.09 1003.28 1003.45 1003.59 1003.71 1003.83 1003.97 1004.13 1004.32 1004.55 1004.81 1005.07 1005.34 1005.58 1005.78 1005.92 1005.99 1005.98 1005.90 1005.76 1005.55 1005.31 1005.03 1004.73 1004.41 1004.08 1003.72 1003.34 1002.92 1002.45 1001.92 1001.34 1000.71 1000.04 999.35 998.65 997.97 997.33 996.75
1001.71 1001.88 1002.10 1002.34 1002.57 1002.77 1002.94 1003.07 1003.18 1003.27 1003.36 1003.47 1003.60 1003.77 1003.98 1004.22 1004.48 1004.73 1004.98 1005.18 1005.33 1005.42 1005.44 1005.39 1005.27 1005.09 1004.87 1004.59 1004.29 1003.96 1003.59 1003.19 1002.75 1002.27 1001.73 1001.14 1000.50 999.81 999.09 998.36 997.62 996.91 996.25 995.64
1001.66 1001.82 1002.02 1002.22 1002.41 1002.57 1002.69 1002.77 1002.83 1002.87 1002.91 1002.97 1003.07 1003.20 1003.38 1003.59 1003.82 1004.07 1004.30 1004.52 1004.69 1004.80 1004.85 1004.84 1004.76 1004.61 1004.41 1004.16 1003.86 1003.52 1003.13 1002.69 1002.20 1001.67 1001.07 1000.42 999.73 998.99 998.23 997.46 996.70 995.97 995.29 994.66
1001.80 1001.94 1002.09 1002.24 1002.36 1002.45 1002.50 1002.52 1002.51 1002.49 1002.47 1002.48 1002.52 1002.61 1002.74 1002.92 1003.13 1003.35 1003.59 1003.81 1004.00 1004.15 1004.25 1004.28 1004.25 1004.16 1004.00 1003.78 1003.50 1003.17 1002.77 1002.31 1001.79 1001.21 1000.57 999.87 999.13 998.36 997.57 996.78 996.00 995.25 994.54 993.89
1002.06 1002.16 1002.25 1002.33 1002.37 1002.38 1002.35 1002.28 1002.20 1002.11 1002.03 1001.98 1001.97 1002.01 1002.10 1002.24 1002.43 1002.65 1002.88 1003.12 1003.34 1003.53 1003.68 1003.78 1003.82 1003.79 1003.69 1003.53 1003.29 1002.98 1002.59 1002.13 1001.60 1001.00 1000.33 999.61 998.84 998.04 997.23 996.42 995.62 994.85 994.12 993.44
1002.33 1002.37 1002.40 1002.40 1002.36 1002.29 1002.17 1002.04 1001.88 1001.73 1001.59 1001.49 1001.43 1001.43 1001.49 1001.61 1001.77 1001.99 1002.23 1002.49 1002.75 1002.99 1003.20 1003.37 1003.49 1003.55 1003.53 1003.44 1003.26 1003.00 1002.65 1002.22 1001.70 1001.10 1000.43 999.70 998.92 998.11 997.28 996.45 995.64 994.85 994.10 993.39
1002.50 1002.49 1002.45 1002.37 1002.27 1002.12 1001.94 1001.74 1001.54 1001.34 1001.16 1001.02 1000.94 1000.91 1000.94 1001.05 1001.21 1001.42 1001.67 1001.96 1002.25 1002.55 1002.83 1003.08 1003.28 1003.43 1003.50 1003.50 1003.41 1003.22 1002.93 1002.55 1002.07 1001.50 1000.85 1000.13 999.36 998.55 997.72 996.89 996.07 995.28 994.51 993.78
Thickness
5755 5767 5773 5774 5779 5784 5777 5769 5761 5770 5779 5791 5802 5809 5813 5815 5815 5814 5813 5814 5814 5811 5810 5810 5809 5807 5804 5801 5799 5795 5789 5783 5780 5778 5775 5771 5767 5763 5760 5758 5754 5751 5748 5745
5746 5761 5764 5765 5776 5780 5780 5780 5776 5778 5781 5799 5805 5808 5808 5809 5810 5808 5808 5810 5811 5810 5808 5807 5806 5804 5802 5800 5798 5794 5788 5783 5781 5776 5772 5768 5765 5761 5757 5754 5751 5748 5744 5741
5722 5742 5747 5741 5766 5772 5774 5780 5779 5771 5780 5794 5794 5797 5800 5804 5806 5805 5807 5808 5807 5807 5806 5805 5805 5803 5800 5798 5796 5791 5786 5782 5779 5774 5770 5766 5763 5758 5754 5751 5748 5743 5740 5737
5710 5720 5712 5743 5774 5779 5773 5774 5781 5782 5785 5791 5793 5797 5802 5804 5803 5803 5805 5805 5805 5805 5804 5804 5803 5801 5799 5796 5792 5788 5783 5780 5776 5772 5768 5765 5760 5756 5752 5749 5745 5740 5736 5733
5695 5697 5713 5744 5765 5770 5761 5758 5775 5776 5780 5786 5791 5789 5789 5798 5802 5801 5802 5802 5802 5802 5802 5800 5798 5797 5793 5789 5787 5783 5779 5777 5773 5770 5766 5762 5758 5753 5749 5745 5741 5737 5734 5730
5691 5691 5695 5730 5762 5774 5762 5740 5767 5771 5773 5776 5777 5761 5769 5789 5793 5795 5796 5796 5796 5796 5794 5793 5793 5792 5787 5783 5781 5779 5778 5775 5772 5768 5764 5759 5755 5750 5747 5743 5738 5734 5729 5727
5685 5686 5702 5737 5758 5761 5729 5731 5759 5765 5768 5769 5766 5767 5775 5783 5785 5788 5789 5789 5789 5788 5786 5786 5787 5785 5780 5778 5775 5776 5774 5771 5767 5764 5760 5756 5752 5748 5744 5739 5733 5729 5724 5721
5676 5677 5693 5738 5742 5732 5731 5746 5752 5755 5760 5761 5763 5768 5771 5773 5776 5778 5778 5780 5781 5779 5778 5779 5779 5776 5773 5771 5773 5770 5767 5764 5760 5758 5755 5752 5747 5742 5738 5734 5727 5722 5718 5714
5685 5691 5713 5728 5732 5736 5738 5738 5743 5747 5753 5757 5756 5757 5761 5763 5765 5769 5771 5771 5773 5772 5771 5771 5771 5769 5766 5766 5766 5763 5759 5756 5754 5751 5748 5745 5741 5736 5731 5727 5722 5717 5713 5708
5684 5696 5709 5718 5725 5730 5734 5734 5739 5743 5746 5749 5747 5748 5750 5753 5754 5757 5760 5762 5763 5763 5761 5761 5762 5763 5762 5761 5760 5756 5752 5748 5746 5743 5739 5737 5734 5731 5726 5721 5717 5713 5709 5704
5676 5689 5699 5707 5713 5720 5725 5729 5731 5735 5738 5740 5740 5739 5741 5742 5744 5747 5750 5752 5754 5753 5753 5752 5754 5753 5754 5753 5752 5748 5744 5741 5738 5735 5732 5728 5725 5722 5720 5717 5715 5710 5706 5702
5667 5680 5682 5690 5702 5711 5714 5716 5720 5723 5726 5730 5732 5732 5733 5734 5737 5739 5740 5743 5744 5744 5743 5743 5744 5744 5745 5746 5744 5740 5735 5733 5730 5727 5724 5720 5716 5711 5709 5708 5707 5704 5701 5697
5675 5682 5684 5690 5697 5703 5705 5708 5712 5714 5716 5718 5722 5725 5725 5726 5729 5730 5732 5733 5733 5734 5734 5734 5734 5734 5736 5737 5735 5732 5729 5727 5723 5720 5716 5712 5707 5703 5698 5696 5696 5695 5692 5689
5674 5676 5676 5682 5687 5693 5696 5700 5704 5707 5710 5711 5713 5716 5717 5718 5720 5721 5722 5724 5725 5725 5724 5724 5724 5724 5727 5727 5726 5724 5722 5720 5717 5713 5710 5706 5702 5697 5694 5690 5686 5682 5680 5678
5668 5671 5671 5676 5680 5684 5687 5689 5691 5694 5698 5700 5704 5706 5707 5708 5709 5711 5713 5715 5715 5714 5714 5714 5714 5714 5718 5718 5717 5715 5714 5712 5709 5706 5703 5699 5695 5690 5686 5683 5679 5675 5670 5666
5663 5665 5666 5667 5670 5674 5677 5679 5680 5683 5689 5691 5693 5695 5697 5699 5700 5701 5703 5704 5702 5702 5704 5704 5705 5707 5709 5708 5707 5706 5705 5704 5702 5698 5694 5690 5686 5682 5679 5675 5672 5668 5664 5661
5652 5653 5655 5657 5661 5665 5668 5671 5673 5677 5680 5682 5684 5686 5689 5690 5690 5690 5691 5693 5694 5694 5696 5696 5697 5700 5701 5701 5700 5698 5697 5695 5693 5689 5685 5682 5679 5676 5673 5669 5666 5662 5659 5656
5650 5651 5652 5653 5655 5657 5660 5663 5666 5669 5671 5674 5677 5678 5679 5680 5680 5681 5683 5684 5684 5685 5687 5689 5691 5692 5693 5693 5691 5689 5686 5685 5683 5681 5678 5675 5672 5669 5666 5663 5660 5655 5651 5648
5646 5646 5648 5650 5651 5652 5653 5655 5658 5661 5664 5666 5667 5668 5670 5671 5672 5674 5676 5676 5675 5675 5678 5682 5683 5684 5683 5683 5682 5679 5677 5676 5674 5672 5670 5667 5664 5661 5658 5655 5652 5649 5645 5641
5639 5640 5641 5642 5643 5644 5646 5649 5651 5652 5654 5655 5655 5657 5659 5661 5664 5666 5667 5667 5669 5671 5673 5674 5674 5674 5673 5673 5673 5671 5670 5668 5666 5663 5661 5659 5656 5653 5651 5648 5645 5642 5639 5636
5630 5632 5632 5632 5633 5635 5637 5640 5642 5643 5645 5646 5646 5648 5650 5653 5656 5658 5658 5658 5661 5665 5666 5666 5665 5665 5665 5665 5664 5662 5661 5660 5657 5655 5653 5650 5647 5645 5643 5641 5638 5635 5632 5629
5623 5623 5624 5625 5626 5626 5628 5631 5634 5636 5637 5639 5641 5642 5643 5645 5647 5648 5651 5652 5655 5657 5657 5657 5657 5658 5657 5656 5655 5654 5653 5652 5650 5647 5644 5642 5639 5637 5635 5633 5630 5628 5625 5622
5614 5616 5617 5617 5618 5620 5622 5624 5627 5628 5630 5631 5632 5634 5635 5636 5638 5639 5640 5644 5647 5649 5649 5649 5650 5649 5649 5648 5647 5645 5644 5643 5641 5639 5636 5634 5632 5630 5628 5626 5623 5620 5617 5615
5607 5609 5610 5612 5613 5614 5615 5617 5620 5622 5624 5624 5625 5627 5628 5629 5630 5634 5636 5638 5640 5641 5641 5640 5640 5640 5640 5639 5637 5636 5635 5633 5632 5630 5628 5626 5624 5622 5621 5619 5616 5613 5610 5608
5604 5604 5606 5607 5607 5609 5611 5613 5614 5616 5618 5618 5620 5621 5622 5624 5625 5627 5629 5631 5632 5632 5632 5631 5631 5631 5631 5630 5629 5628 5626 5625 5624 5622 5621 5618 5616 5614 5612 5610 5609 5606 5604 5602
5600 5600 5601 5603 5605 5606 5608 5608 5608 5609 5610 5611 5613 5615 5616 5618 5619 5620 5621 5623 5624 5624 5624 5623 5623 5622 5622 5622 5621 5620 5618 5617 5615 5614 5613 5611 5609 5607 5605 5603 5601 5599 5597 5595
5596 5597 5598 5599 5602 5603 5604 5605 5605 5605 5606 5606 5606 5608 5610 5611 5612 5613 5614 5615 5615 5615 5615 5614 5614 5614 5614 5614 5613 5612 5611 5609 5608 5606 5605 5603 5602 5600 5599 5597 5594 5592 5590 5588